TRACERS 2 (64873 NORAD) Tracking and Keplerian Element Data

This shows tracking and keplerian element data for the satellite.

Feedback or suggestion? Click here.




ElementValue
Catalog64873
NameTRACERS 2
Epoch Orbit2228
Epoch Day354.18082084
Epoch Year2025
RAAN57.0454
Inclination97.6953
Eccentricity0.0004297
Argument of Perigee154.2487
Mean Anonmoly205.8947
Mean Motion14.9276123
Decay Rate1.365E-05
L11 64873U 25154E 25354.18082084 .00001365 00000+0 13745-3 0 9992
L22 64873 97.6953 57.0454 0004297 154.2487 205.8947 14.92761230 22281



Live tracking and technical data element details for TRACERS 2 (NORAD 64873). TRACERS 2 can be tracked NOW for your location showing map with azimuth and elevation plus other details from your city location.







IsCatalogInMostPopularTable: catalog: 64873, numindb: 4
Update: records affected: 1



GetName: 64873 TRACERS 2

Hit Count: updated at: Sat, 11 Apr 2026 21:03:55 GMT